BCS19K EDDP-LIMC

Flight info

Callsign BCS19K
Flight time 1h 11m
Altitude 37000
Route GOLAT2S/26L GOLAT T202 TABAT M736 RONIG M736 AKOSI DCT BERAS DCT OLPIX DCT EKPEB DCT NAXAV DCT RENTA DCT ATPED DCT LUSIL DCT EVRIP
Aircraft A333/H-SDE3GHIJ2J3J5M1RVWXY/LB2D1

Departure

Time 2026-02-18 11:54
Airport Leipzig/Halle Airport (EDDP)

Arrival

Time 2026-02-18 13:05
Airport Milan Malpensa International Airport (LIMC)
Time Latitude Longitude Altitude Speed Heading
2026-02-18 11:35 51.40842 12.24522 468 ft 0 kts 265°
2026-02-18 11:46 51.40842 12.24529 468 ft 2 kts 265°
2026-02-18 11:46 51.40844 12.24559 463 ft 3 kts 265°
2026-02-18 11:46 51.40845 12.24590 464 ft 3 kts 271°
2026-02-18 11:46 51.40842 12.24617 467 ft 3 kts 317°
2026-02-18 11:47 51.40831 12.24627 466 ft 1 kts 355°
2026-02-18 11:47 51.40817 12.24629 463 ft 3 kts 355°
2026-02-18 11:47 51.40803 12.24631 464 ft 1 kts 355°
2026-02-18 11:49 51.40830 12.24627 466 ft 6 kts 355°
2026-02-18 11:50 51.40883 12.24623 469 ft 9 kts
2026-02-18 11:50 51.40956 12.24645 468 ft 12 kts 11°
2026-02-18 11:50 51.41047 12.24649 470 ft 13 kts 357°
2026-02-18 11:50 51.41098 12.24718 470 ft 11 kts 75°
2026-02-18 11:51 51.41108 12.24865 475 ft 16 kts 86°
2026-02-18 11:51 51.41118 12.25072 468 ft 21 kts 86°
2026-02-18 11:51 51.41130 12.25332 476 ft 25 kts 85°
2026-02-18 11:51 51.41145 12.25569 478 ft 18 kts 65°
2026-02-18 11:52 51.41247 12.25621 481 ft 15 kts
2026-02-18 11:52 51.41346 12.25616 478 ft 14 kts 355°
2026-02-18 11:52 51.41399 12.25558 477 ft 8 kts 279°
2026-02-18 11:52 51.41398 12.25533 479 ft 1 kts 268°
2026-02-18 11:53 51.41392 12.25377 477 ft 37 kts 266°
2026-02-18 11:53 51.41293 12.23278 471 ft 147 kts 266°
2026-02-18 11:53 51.41197 12.21467 837 ft 166 kts 267°
2026-02-18 11:54 51.41099 12.19623 1733 ft 168 kts 268°
2026-02-18 11:54 51.41011 12.17646 2093 ft 186 kts 269°
2026-02-18 11:54 51.40937 12.15517 2430 ft 202 kts 269°
2026-02-18 11:54 51.40871 12.13157 2721 ft 221 kts 269°
2026-02-18 11:55 51.40803 12.10587 3065 ft 238 kts 269°
2026-02-18 11:55 51.40652 12.07867 3456 ft 250 kts 265°
2026-02-18 11:55 51.40452 12.05120 4169 ft 248 kts 266°
2026-02-18 11:55 51.40304 12.02383 4767 ft 252 kts 267°
2026-02-18 11:56 51.40166 11.99574 5375 ft 254 kts 267°
2026-02-18 11:56 51.40009 11.96737 6046 ft 256 kts 264°
2026-02-18 11:56 51.39493 11.93990 6696 ft 262 kts 244°
2026-02-18 11:56 51.38286 11.91771 7342 ft 269 kts 220°
2026-02-18 11:57 51.36710 11.90171 7943 ft 274 kts 211°
2026-02-18 11:57 51.33092 11.87906 9260 ft 282 kts 202°
2026-02-18 11:57 51.31208 11.86951 9890 ft 286 kts 200°
2026-02-18 11:58 51.29291 11.86052 10285 ft 296 kts 200°
2026-02-18 11:58 51.27251 11.85126 10507 ft 312 kts 199°
2026-02-18 11:58 51.25109 11.84165 10726 ft 327 kts 199°
2026-02-18 11:58 51.22861 11.83158 10921 ft 342 kts 199°
2026-02-18 11:59 51.20520 11.82105 11122 ft 355 kts 199°
2026-02-18 11:59 51.18097 11.81012 11415 ft 366 kts 199°
2026-02-18 11:59 51.15661 11.79913 11838 ft 371 kts 199°
2026-02-18 11:59 51.13157 11.78783 12320 ft 375 kts 199°
2026-02-18 12:00 51.10628 11.77641 12772 ft 379 kts 199°
2026-02-18 12:00 51.08064 11.76481 13246 ft 384 kts 200°
2026-02-18 12:00 51.05507 11.75326 13710 ft 388 kts 200°
2026-02-18 12:00 51.02894 11.74145 14139 ft 391 kts 200°
2026-02-18 12:01 51.00264 11.72958 14587 ft 394 kts 200°
2026-02-18 12:01 50.94995 11.70587 15529 ft 396 kts 201°
2026-02-18 12:01 50.92327 11.69388 15935 ft 399 kts 201°
2026-02-18 12:02 50.89634 11.68176 16350 ft 402 kts 201°
2026-02-18 12:02 50.86923 11.66958 16750 ft 405 kts 201°
2026-02-18 12:02 50.84195 11.65734 17160 ft 407 kts 201°
2026-02-18 12:02 50.81487 11.64521 17568 ft 410 kts 202°
2026-02-18 12:03 50.78723 11.63285 17973 ft 413 kts 202°
2026-02-18 12:03 50.75946 11.62046 18352 ft 415 kts 202°
2026-02-18 12:03 50.73167 11.60808 18777 ft 413 kts 202°
2026-02-18 12:03 50.70417 11.59587 19161 ft 414 kts 202°
2026-02-18 12:04 50.67627 11.58346 19472 ft 416 kts 202°
2026-02-18 12:04 50.64827 11.57100 19804 ft 418 kts 203°
2026-02-18 12:04 50.62014 11.55850 20115 ft 420 kts 202°
2026-02-18 12:04 50.59139 11.54801 20427 ft 428 kts 195°
2026-02-18 12:05 50.56168 11.54493 20733 ft 439 kts 184°
2026-02-18 12:05 50.50073 11.56688 21315 ft 457 kts 165°
2026-02-18 12:05 50.47092 11.58524 21616 ft 461 kts 162°
2026-02-18 12:06 50.44165 11.60508 21885 ft 463 kts 160°
2026-02-18 12:06 50.41205 11.62573 22149 ft 466 kts 160°
2026-02-18 12:06 50.38231 11.64641 22421 ft 469 kts 160°
2026-02-18 12:06 50.35234 11.66692 22677 ft 470 kts 161°
2026-02-18 12:07 50.33236 11.68040 22881 ft 471 kts 161°
2026-02-18 12:07 50.29221 11.70711 23251 ft 474 kts 162°
2026-02-18 12:07 50.26171 11.72718 23507 ft 475 kts 162°
2026-02-18 12:07 50.24147 11.74043 23661 ft 476 kts 162°
2026-02-18 12:08 50.16983 11.78715 24221 ft 481 kts 162°
2026-02-18 12:08 50.14934 11.80050 24374 ft 482 kts 162°
2026-02-18 12:08 50.11830 11.82069 24634 ft 484 kts 162°
2026-02-18 12:09 50.08705 11.84102 24885 ft 486 kts 162°
2026-02-18 12:09 50.02467 11.88153 25350 ft 488 kts 162°
2026-02-18 12:09 49.99322 11.90193 25587 ft 490 kts 162°
2026-02-18 12:10 49.96160 11.92239 25805 ft 493 kts 162°
2026-02-18 12:10 49.92973 11.94301 25990 ft 496 kts 162°
2026-02-18 12:10 49.89816 11.96346 26206 ft 498 kts 162°
2026-02-18 12:10 49.86610 11.98425 26433 ft 499 kts 162°
2026-02-18 12:11 49.83394 12.00505 26667 ft 501 kts 163°
2026-02-18 12:11 49.80158 12.02591 26898 ft 502 kts 163°
2026-02-18 12:11 49.76964 12.04644 27109 ft 504 kts 163°
2026-02-18 12:11 49.73683 12.06541 27356 ft 500 kts 169°
2026-02-18 12:12 49.70300 12.07691 27572 ft 493 kts 180°
2026-02-18 12:12 49.66908 12.07949 27827 ft 485 kts 189°
2026-02-18 12:12 49.63537 12.07730 28061 ft 483 kts 192°
2026-02-18 12:12 49.60211 12.07327 28294 ft 483 kts 193°
2026-02-18 12:13 49.56863 12.06827 28542 ft 484 kts 194°
2026-02-18 12:13 49.50151 12.05774 29034 ft 485 kts 194°
2026-02-18 12:13 49.46773 12.05260 29286 ft 487 kts 194°
2026-02-18 12:14 49.43383 12.04764 29491 ft 489 kts 194°
2026-02-18 12:14 49.40017 12.04283 29738 ft 491 kts 193°
2026-02-18 12:14 49.36592 12.03803 29959 ft 493 kts 193°
2026-02-18 12:14 49.33169 12.03327 30150 ft 494 kts 193°
2026-02-18 12:15 49.29748 12.02855 30390 ft 494 kts 193°
2026-02-18 12:15 49.26318 12.02382 30663 ft 493 kts 193°
2026-02-18 12:15 49.22895 12.01911 30952 ft 493 kts 194°
2026-02-18 12:15 49.19520 12.01447 31193 ft 493 kts 194°
2026-02-18 12:16 49.16101 12.00975 31512 ft 492 kts 194°
2026-02-18 12:16 49.12690 12.00505 31838 ft 492 kts 194°
2026-02-18 12:16 49.09269 12.00033 32089 ft 493 kts 194°
2026-02-18 12:16 49.05856 11.99562 32431 ft 493 kts 194°
2026-02-18 12:17 49.02436 11.99091 32802 ft 492 kts 194°
2026-02-18 12:17 48.95610 11.98156 33530 ft 492 kts 194°
2026-02-18 12:17 48.92235 11.97696 33891 ft 492 kts 194°
2026-02-18 12:18 48.88821 11.97230 34193 ft 492 kts 194°
2026-02-18 12:18 48.85406 11.96765 34513 ft 491 kts 194°
2026-02-18 12:18 48.82009 11.96304 34866 ft 489 kts 194°
2026-02-18 12:18 48.78621 11.95844 35220 ft 487 kts 194°
2026-02-18 12:19 48.75234 11.95384 35550 ft 486 kts 194°
2026-02-18 12:19 48.71906 11.94932 35862 ft 485 kts 194°
2026-02-18 12:19 48.68533 11.94473 36157 ft 485 kts 194°
2026-02-18 12:19 48.65174 11.94016 36366 ft 485 kts 194°
2026-02-18 12:20 48.61803 11.93559 36627 ft 485 kts 194°
2026-02-18 12:20 48.58486 11.93110 36909 ft 484 kts 193°
2026-02-18 12:20 48.55127 11.92657 37191 ft 483 kts 193°
2026-02-18 12:20 48.51762 11.92205 37474 ft 483 kts 193°
2026-02-18 12:21 48.48421 11.91756 37757 ft 482 kts 193°
2026-02-18 12:21 48.41728 11.90856 38168 ft 483 kts 194°
2026-02-18 12:21 48.38380 11.90406 38408 ft 483 kts 194°
2026-02-18 12:22 48.35037 11.89958 38660 ft 482 kts 194°
2026-02-18 12:22 48.31737 11.89518 38867 ft 481 kts 193°
2026-02-18 12:22 48.28394 11.89072 39033 ft 481 kts 193°
2026-02-18 12:22 48.25048 11.88625 39196 ft 481 kts 193°
2026-02-18 12:23 48.18381 11.87733 39041 ft 485 kts 193°
2026-02-18 12:23 48.11666 11.86846 38983 ft 482 kts 193°
2026-02-18 12:24 48.04988 11.85967 38980 ft 480 kts 193°
2026-02-18 12:24 47.98284 11.85075 38970 ft 487 kts 194°
2026-02-18 12:25 47.88055 11.83712 38975 ft 499 kts 193°
2026-02-18 12:26 47.81128 11.82812 38947 ft 499 kts 193°
2026-02-18 12:26 47.74198 11.81915 38974 ft 500 kts 193°
2026-02-18 12:27 47.67299 11.81017 38973 ft 500 kts 193°
2026-02-18 12:27 47.60359 11.80110 38955 ft 500 kts 194°
2026-02-18 12:28 47.53408 11.79207 38963 ft 500 kts 193°
2026-02-18 12:28 47.46456 11.78311 38979 ft 501 kts 193°
2026-02-18 12:29 47.39552 11.77426 38945 ft 499 kts 194°
2026-02-18 12:29 47.29270 11.75592 38973 ft 491 kts 198°
2026-02-18 12:30 47.22551 11.73944 38980 ft 491 kts 199°
2026-02-18 12:30 47.15790 11.72300 38980 ft 491 kts 198°
2026-02-18 12:31 47.09082 11.70731 39004 ft 490 kts 198°
2026-02-18 12:31 47.02405 11.68906 39005 ft 479 kts 206°
2026-02-18 12:32 46.96308 11.65458 39009 ft 469 kts 213°
2026-02-18 12:32 46.90373 11.61532 39014 ft 467 kts 214°
2026-02-18 12:33 46.81552 11.55569 39014 ft 467 kts 214°
2026-02-18 12:34 46.75638 11.51602 38997 ft 466 kts 214°
2026-02-18 12:34 46.69760 11.47686 39002 ft 467 kts 214°
2026-02-18 12:35 46.63834 11.43752 38986 ft 466 kts 214°
2026-02-18 12:35 46.57963 11.39856 38991 ft 465 kts 214°
2026-02-18 12:36 46.52088 11.35903 38995 ft 461 kts 218°
2026-02-18 12:36 46.49378 11.33491 38975 ft 450 kts 225°
2026-02-18 12:36 46.47006 11.30619 38988 ft 439 kts 233°
2026-02-18 12:37 46.43461 11.23745 38913 ft 421 kts 248°
2026-02-18 12:37 46.39475 11.12391 38886 ft 425 kts 251°
2026-02-18 12:38 46.36894 11.04712 38885 ft 425 kts 250°
2026-02-18 12:38 46.34266 10.97034 38890 ft 425 kts 250°
2026-02-18 12:39 46.31629 10.89429 38885 ft 425 kts 250°
2026-02-18 12:39 46.28972 10.81797 38728 ft 426 kts 250°
2026-02-18 12:40 46.27638 10.77958 38254 ft 427 kts 250°
2026-02-18 12:40 46.26301 10.74112 37649 ft 427 kts 250°
2026-02-18 12:40 46.24981 10.70316 37056 ft 427 kts 250°
2026-02-18 12:40 46.23643 10.66472 36512 ft 428 kts 250°
2026-02-18 12:41 46.22299 10.62626 35960 ft 427 kts 251°
2026-02-18 12:41 46.19615 10.54973 34881 ft 426 kts 251°
2026-02-18 12:41 46.18277 10.51143 34383 ft 428 kts 251°
2026-02-18 12:42 46.16947 10.47345 33892 ft 429 kts 251°
2026-02-18 12:42 46.15592 10.43492 33302 ft 429 kts 251°
2026-02-18 12:42 46.14234 10.39643 32745 ft 431 kts 251°
2026-02-18 12:42 46.12866 10.35775 32178 ft 433 kts 251°
2026-02-18 12:43 46.11490 10.31882 31629 ft 436 kts 251°
2026-02-18 12:43 46.10110 10.27979 31045 ft 438 kts 250°
2026-02-18 12:43 46.08734 10.24095 30522 ft 442 kts 250°
2026-02-18 12:43 46.07330 10.20135 30017 ft 444 kts 250°
2026-02-18 12:44 46.05918 10.16165 29430 ft 445 kts 250°
2026-02-18 12:44 46.04511 10.12209 28811 ft 442 kts 250°
2026-02-18 12:44 46.03158 10.08305 28255 ft 439 kts 250°
2026-02-18 12:44 46.01821 10.04362 27763 ft 434 kts 250°
2026-02-18 12:45 46.00504 10.00452 27282 ft 430 kts 250°
2026-02-18 12:45 45.97935 9.92778 26330 ft 425 kts 250°
2026-02-18 12:45 45.96654 9.88961 25884 ft 422 kts 250°
2026-02-18 12:46 45.95377 9.85171 25430 ft 419 kts 250°
2026-02-18 12:46 45.94103 9.81404 24985 ft 416 kts 249°
2026-02-18 12:46 45.92851 9.77708 24549 ft 415 kts 249°
2026-02-18 12:46 45.91586 9.73984 24122 ft 414 kts 249°
2026-02-18 12:47 45.90322 9.70267 23703 ft 412 kts 249°
2026-02-18 12:47 45.89063 9.66580 23243 ft 409 kts 249°
2026-02-18 12:47 45.87808 9.62916 22739 ft 406 kts 249°
2026-02-18 12:47 45.86579 9.59324 22268 ft 405 kts 249°
2026-02-18 12:48 45.85343 9.55705 21790 ft 402 kts 248°
2026-02-18 12:48 45.84111 9.52100 21176 ft 400 kts 249°
2026-02-18 12:48 45.82885 9.48515 20431 ft 399 kts 249°
2026-02-18 12:48 45.81667 9.44948 19874 ft 395 kts 248°
2026-02-18 12:49 45.80468 9.41465 19331 ft 392 kts 248°
2026-02-18 12:49 45.78049 9.34490 18282 ft 390 kts 248°
2026-02-18 12:49 45.76845 9.31012 17668 ft 388 kts 248°
2026-02-18 12:50 45.75661 9.27587 17097 ft 386 kts 248°
2026-02-18 12:50 45.74473 9.24150 16517 ft 383 kts 248°
2026-02-18 12:50 45.73294 9.20745 15946 ft 380 kts 248°
2026-02-18 12:50 45.72121 9.17360 15388 ft 378 kts 248°
2026-02-18 12:51 45.70954 9.13999 14848 ft 376 kts 248°
2026-02-18 12:51 45.69792 9.10657 14317 ft 373 kts 248°
2026-02-18 12:51 45.68635 9.07334 13783 ft 371 kts 248°
2026-02-18 12:51 45.67499 9.04078 13199 ft 369 kts 247°
2026-02-18 12:52 45.66357 9.00804 12604 ft 363 kts 246°
2026-02-18 12:52 45.65235 8.97595 12020 ft 357 kts 246°
2026-02-18 12:52 45.64127 8.94439 11467 ft 352 kts 245°
2026-02-18 12:52 45.62886 8.91500 10925 ft 349 kts 231°
2026-02-18 12:53 45.60993 8.89402 10647 ft 343 kts 207°
2026-02-18 12:53 45.56413 8.88715 10308 ft 324 kts 177°
2026-02-18 12:53 45.54219 8.89228 10162 ft 313 kts 172°
2026-02-18 12:54 45.52153 8.89895 10032 ft 302 kts 170°
2026-02-18 12:54 45.50150 8.90592 9898 ft 291 kts 170°
2026-02-18 12:54 45.48205 8.91252 9664 ft 284 kts 171°
2026-02-18 12:54 45.46282 8.91863 9316 ft 282 kts 171°
2026-02-18 12:55 45.44366 8.92442 8941 ft 280 kts 171°
2026-02-18 12:55 45.42486 8.92999 8603 ft 278 kts 171°
2026-02-18 12:55 45.40591 8.93556 8256 ft 277 kts 171°
2026-02-18 12:55 45.38703 8.94103 7893 ft 275 kts 171°
2026-02-18 12:56 45.36831 8.94647 7583 ft 272 kts 171°
2026-02-18 12:56 45.34983 8.95184 7258 ft 270 kts 171°
2026-02-18 12:56 45.33162 8.95702 6924 ft 269 kts 171°
2026-02-18 12:56 45.31329 8.96206 6614 ft 266 kts 173°
2026-02-18 12:57 45.28406 8.95397 6012 ft 260 kts 213°
2026-02-18 12:57 45.26895 8.92814 5436 ft 261 kts 246°
2026-02-18 12:57 45.26468 8.90303 5094 ft 262 kts 261°
2026-02-18 12:58 45.26423 8.88590 4827 ft 264 kts 275°
2026-02-18 12:58 45.27057 8.86137 4405 ft 268 kts 302°
2026-02-18 12:58 45.28250 8.84099 4100 ft 267 kts 312°
2026-02-18 12:58 45.29583 8.82266 4016 ft 266 kts 324°
2026-02-18 12:59 45.31232 8.81082 4018 ft 267 kts 342°
2026-02-18 12:59 45.33025 8.80494 4019 ft 267 kts 350°
2026-02-18 12:59 45.34865 8.80055 4018 ft 267 kts 350°
2026-02-18 12:59 45.36695 8.79583 4019 ft 267 kts 349°
2026-02-18 13:00 45.38520 8.79074 4016 ft 267 kts 348°
2026-02-18 13:00 45.40332 8.78563 4007 ft 259 kts 349°
2026-02-18 13:00 45.42055 8.78086 3983 ft 245 kts 349°
2026-02-18 13:00 45.43664 8.77646 3946 ft 232 kts 349°
2026-02-18 13:01 45.46651 8.76824 3837 ft 208 kts 350°
2026-02-18 13:01 45.48062 8.76435 3525 ft 205 kts 351°
2026-02-18 13:01 45.49456 8.76050 3210 ft 203 kts 351°
2026-02-18 13:02 45.50821 8.75673 2918 ft 200 kts 350°
2026-02-18 13:02 45.52181 8.75295 2640 ft 197 kts 352°
2026-02-18 13:02 45.53494 8.74933 2381 ft 187 kts 351°
2026-02-18 13:02 45.54749 8.74586 2122 ft 180 kts 352°
2026-02-18 13:03 45.55931 8.74258 1884 ft 166 kts 352°
2026-02-18 13:03 45.57020 8.73957 1653 ft 153 kts 353°
2026-02-18 13:03 45.58006 8.73685 1448 ft 141 kts 349°
2026-02-18 13:03 45.58970 8.73410 1296 ft 142 kts 348°
2026-02-18 13:04 45.59945 8.73131 1086 ft 143 kts 349°
2026-02-18 13:04 45.60918 8.72867 894 ft 142 kts 348°
2026-02-18 13:04 45.61887 8.72596 754 ft 137 kts 347°
2026-02-18 13:04 45.62659 8.72392 747 ft 86 kts 349°
2026-02-18 13:05 45.63186 8.72125 751 ft 13 kts 319°
2026-02-18 13:05 45.63225 8.72077 749 ft 3 kts 319°
2026-02-18 13:05 45.63237 8.72063 750 ft 0 kts 319°
2026-02-18 13:06 45.63239 8.72061 749 ft 2 kts 319°
2026-02-18 13:06 45.63256 8.72027 751 ft 6 kts 292°
2026-02-18 13:06 45.63235 8.71986 750 ft 6 kts 193°
2026-02-18 13:06 45.63184 8.71994 751 ft 9 kts 171°
2026-02-18 13:07 45.63103 8.72014 755 ft 14 kts 168°
2026-02-18 13:07 45.62994 8.72046 752 ft 18 kts 169°
2026-02-18 13:07 45.62858 8.72083 753 ft 22 kts 169°
2026-02-18 13:07 45.62729 8.72120 752 ft 11 kts 168°
2026-02-18 13:08 45.62683 8.72072 753 ft 9 kts 254°
2026-02-18 13:08 45.62670 8.71979 751 ft 11 kts 260°
2026-02-18 13:08 45.62653 8.71857 752 ft 10 kts 243°
2026-02-18 13:08 45.62622 8.71843 753 ft 6 kts 182°
2026-02-18 13:09 45.62450 8.71885 752 ft 19 kts 169°
2026-02-18 13:09 45.62300 8.71927 753 ft 24 kts 168°
2026-02-18 13:09 45.62134 8.71972 756 ft 24 kts 169°
2026-02-18 13:10 45.61966 8.72019 753 ft 25 kts 169°
2026-02-18 13:10 45.61794 8.72066 752 ft 25 kts 169°
2026-02-18 13:10 45.61624 8.72114 756 ft 25 kts 168°
2026-02-18 13:10 45.61448 8.72161 753 ft 26 kts 169°
2026-02-18 13:11 45.61280 8.72208 754 ft 24 kts 169°
2026-02-18 13:11 45.61169 8.72236 752 ft 9 kts 185°
2026-02-18 13:11 45.61135 8.72175 754 ft 8 kts 239°
2026-02-18 13:11 45.61086 8.72132 752 ft 9 kts 187°
2026-02-18 13:12 45.61022 8.72151 752 ft 11 kts 167°
2026-02-18 13:12 45.60933 8.72176 753 ft 15 kts 168°
2026-02-18 13:12 45.60828 8.72206 753 ft 16 kts 168°
2026-02-18 13:12 45.60715 8.72238 754 ft 17 kts 169°
2026-02-18 13:13 45.60617 8.72208 757 ft 6 kts 257°
2026-02-18 13:13 45.60609 8.72154 753 ft 4 kts 259°
2026-02-18 13:13 45.60606 8.72128 753 ft 1 kts 259°
2026-02-18 13:14 45.60606 8.72127 754 ft 0 kts 259°